TimeCDT,TemperatureF,Dew PointF,Humidity,Sea Level PressureIn,VisibilityMPH,Wind Direction,Wind SpeedMPH,Gust SpeedMPH,PrecipitationIn,Events,Conditions,WindDirDegrees,DateUTC
12:15 AM,59.0,-9999,N/A,30.04,9.0,Calm,Calm,-,N/A,,Clear,0,2013-10-11 05:15:00
12:35 AM,59.0,-9999,N/A,30.03,5.0,Calm,Calm,-,N/A,,Clear,0,2013-10-11 05:35:00
12:55 AM,57.2,-9999,N/A,30.04,5.0,Calm,Calm,-,N/A,,Partly Cloudy,0,2013-10-11 05:55:00
1:15 AM,59.0,-9999,N/A,30.04,1.5,Calm,Calm,-,N/A,,Scattered Clouds,0,2013-10-11 06:15:00
1:35 AM,59.0,-9999,N/A,30.04,3.0,Calm,Calm,-,N/A,,Partly Cloudy,0,2013-10-11 06:35:00
1:55 AM,59.0,-9999,N/A,30.04,1.2,Calm,Calm,-,N/A,,Scattered Clouds,0,2013-10-11 06:55:00
2:15 AM,57.2,-9999,N/A,30.03,1.8,Calm,Calm,-,N/A,,Clear,0,2013-10-11 07:15:00
2:35 AM,57.2,-9999,N/A,30.03,0.8,Calm,Calm,-,N/A,,Mostly Cloudy,0,2013-10-11 07:35:00
2:55 AM,57.2,-9999,N/A,30.03,4.0,Calm,Calm,-,N/A,,Clear,0,2013-10-11 07:55:00
3:15 AM,57.2,-9999,N/A,30.03,4.0,Calm,Calm,-,N/A,,Clear,0,2013-10-11 08:15:00
3:35 AM,57.2,-9999,N/A,30.03,5.0,Calm,Calm,-,N/A,,Clear,0,2013-10-11 08:35:00
3:55 AM,57.2,-9999,N/A,30.03,0.2,Calm,Calm,-,N/A,,Unknown,0,2013-10-11 08:55:00
4:15 AM,57.2,-9999,N/A,30.03,1.8,Calm,Calm,-,N/A,,Scattered Clouds,0,2013-10-11 09:15:00
4:35 AM,57.2,-9999,N/A,30.04,4.0,Calm,Calm,-,N/A,,Scattered Clouds,0,2013-10-11 09:35:00
4:55 AM,57.2,-9999,N/A,30.04,7.0,Calm,Calm,-,N/A,,Scattered Clouds,0,2013-10-11 09:55:00
5:15 AM,57.2,-9999,N/A,30.04,7.0,Calm,Calm,-,N/A,,Partly Cloudy,0,2013-10-11 10:15:00
5:35 AM,57.2,-9999,N/A,30.05,8.0,Calm,Calm,-,N/A,,Mostly Cloudy,0,2013-10-11 10:35:00
5:55 AM,57.2,-9999,N/A,30.06,6.0,Calm,Calm,-,N/A,,Scattered Clouds,0,2013-10-11 10:55:00
6:50 AM,60.8,59.0,94,30.07,3.0,Calm,Calm,-,N/A,,Scattered Clouds,0,2013-10-11 11:50:00
7:50 AM,60.8,59.0,94,30.08,4.0,Calm,Calm,-,N/A,,Partly Cloudy,0,2013-10-11 12:50:00
8:50 AM,66.2,60.8,83,30.10,6.0,Calm,Calm,-,N/A,,Clear,0,2013-10-11 13:50:00
9:50 AM,71.6,64.4,78,30.10,6.0,Calm,Calm,-,N/A,,Clear,0,2013-10-11 14:50:00
10:50 AM,77.0,64.4,65,30.09,10.0,Calm,Calm,-,N/A,,Partly Cloudy,0,2013-10-11 15:50:00
11:50 AM,77.0,60.8,57,30.09,10.0,Calm,Calm,-,N/A,,Mostly Cloudy,0,2013-10-11 16:50:00
12:50 PM,78.8,60.8,54,30.06,10.0,Calm,Calm,-,N/A,,Mostly Cloudy,0,2013-10-11 17:50:00
1:50 PM,84.2,57.2,40,30.03,10.0,South,4.6,-,N/A,,Mostly Cloudy,180,2013-10-11 18:50:00
2:50 PM,84.2,60.8,45,30.01,10.0,WSW,6.9,-,N/A,,Scattered Clouds,250,2013-10-11 19:50:00
3:50 PM,86.0,57.2,37,30.01,10.0,SW,6.9,-,N/A,,Scattered Clouds,230,2013-10-11 20:50:00
4:45 PM,82.4,57.2,42,30.00,10.0,ESE,3.5,-,N/A,,Scattered Clouds,110,2013-10-11 21:45:00
5:45 PM,80.6,60.8,51,30.00,10.0,NE,4.6,-,N/A,,Partly Cloudy,50,2013-10-11 22:45:00
6:50 PM,75.2,60.8,61,30.01,10.0,Calm,Calm,-,N/A,,Partly Cloudy,0,2013-10-11 23:50:00
7:45 PM,73.4,62.6,69,30.01,10.0,Calm,Calm,-,N/A,,Clear,0,2013-10-12 00:45:00
7:55 PM,73.4,-9999,N/A,30.02,10.0,Calm,Calm,-,N/A,,Clear,0,2013-10-12 00:55:00
8:15 PM,71.6,-9999,N/A,30.01,10.0,SE,3.5,-,N/A,,Clear,130,2013-10-12 01:15:00
8:35 PM,71.6,-9999,N/A,30.01,10.0,Calm,Calm,-,N/A,,Clear,0,2013-10-12 01:35:00
8:55 PM,68.0,-9999,N/A,30.01,8.0,SSE,4.6,-,N/A,,Clear,160,2013-10-12 01:55:00
9:15 PM,66.2,-9999,N/A,30.02,10.0,Calm,Calm,-,N/A,,Clear,0,2013-10-12 02:15:00
9:35 PM,69.8,-9999,N/A,30.02,10.0,Calm,Calm,-,N/A,,Clear,0,2013-10-12 02:35:00
9:55 PM,68.0,-9999,N/A,30.02,10.0,South,3.5,-,N/A,,Partly Cloudy,170,2013-10-12 02:55:00
10:15 PM,66.2,-9999,N/A,30.02,10.0,SSE,3.5,-,N/A,,Partly Cloudy,150,2013-10-12 03:15:00
10:35 PM,66.2,-9999,N/A,30.02,10.0,South,3.5,-,N/A,,Clear,170,2013-10-12 03:35:00
10:55 PM,64.4,-9999,N/A,30.02,10.0,South,3.5,-,N/A,,Clear,170,2013-10-12 03:55:00
11:15 PM,62.6,-9999,N/A,30.02,10.0,South,3.5,-,N/A,,Clear,190,2013-10-12 04:15:00
11:35 PM,64.4,-9999,N/A,30.02,10.0,Calm,Calm,-,N/A,,Clear,0,2013-10-12 04:35:00
11:55 PM,66.2,-9999,N/A,30.02,10.0,Calm,Calm,-,N/A,,Clear,0,2013-10-12 04:55:00